Regional Weather Roundup
Issued by NWS Green Bay, WI

Home | Current Version | Previous Version | Text Only | Print | Product List | Glossary On
Versions: 1 2 3 4 5 6 7 8 9 10 11 12 13 14 15 16 17 18 19 20 21 22 23 24 25 26 27 28 29 30 31 32 33 34 35 36 37 38 39 40 41 42 43 44 45 46 47 48 49 50
000
ASUS43 KGRB 211910
RWRGRB

NORTH-CENTRAL AND NORTHEAST WISCONSIN REGIONAL WEATHER ROUNDUP
NATIONAL WEATHER SERVICE GREEN BAY WI
100 PM CST SUN DEC 21 2014

WIZ005-009-010>012-018-019-212000-
NORTH CENTRAL WISCONSIN

CITY           SKY/WX    TMP DP  RH WIND       PRES   REMARKS
IRONWOOD       CLOUDY    34  28  80 S12       29.83F
MANITOWISH WTR LGT SNOW  31  30  99 S10       29.87F
ARBOR VITAE    LGT SNOW  32  30  93 S10       29.88F
EAGLE RIVER    LGT SNOW  31  30  98 S8        29.90F
LAND O LAKES   LGT SNOW  31  30  94 S8        29.90F
RHINELANDER    LGT SNOW  30  29  96 S8G17     29.91F FOG
PHILLIPS       LGT SNOW  31  30  94 SE14      29.87F
ANTIGO         FOG       30  30 100 S9        29.95F VSB 1/2
TOMAHAWK       CLOUDY    31  29  93 CALM      29.92F FOG
MERRILL        CLOUDY    32  32 100 S5        29.93F FOG
$$

WIZ013-073-212000-
NORTHEAST WISCONSIN

CITY           SKY/WX    TMP DP  RH WIND       PRES   REMARKS
IRON MOUNTAIN  CLOUDY    30  28  92 SE7       29.98F FOG
MARINETTE      CLOUDY    36  30  80 S9        30.03F
OCONTO         CLOUDY    34  32  93 S6        30.04F
$$

WIZ017-030-035>037-045-212000-
CENTRAL WISCONSIN

CITY           SKY/WX    TMP DP  RH WIND       PRES   REMARKS
MEDFORD        LGT SNOW  31  31  99 SE13      29.89F VSB 1
WAUSAU         LGT SNOW  32  31  96 SE12      29.93F FOG
MOSINEE        LGT SNOW  32  32 100 SE10      29.95F FOG
MARSHFIELD     FOG       33  31  92 S10       29.91F VSB 1/4
WISC RAPIDS    CLOUDY    34  31  88 S9        29.96F FOG
STEVENS POINT  CLOUDY    32  31  96 S8        29.96F FOG
WAUPACA        CLOUDY    36  32  86 SE8       30.01F FOG
SHAWANO        CLOUDY    36  32  87 S7        30.01F FOG
CLINTONVILLE   CLOUDY    34  32  93 S10       30.01F FOG
$$

WIZ038-039-048-051-212000-
FOX VALLEY

CITY           SKY/WX    TMP DP  RH WIND       PRES   REMARKS
NWS GREEN BAY  CLOUDY    34  31  88 S7        30.04F FOG
APPLETON       CLOUDY    34  32  93 S12G17    30.03F FOG
OSHKOSH        CLOUDY    36  31  82 S9        30.03F HAZE
FOND DU LAC    CLOUDY    35  31  85 S10       30.04F
$$

WIZ022-050-052-212000-
EAST CENTRAL WISCONSIN

CITY           SKY/WX    TMP DP  RH WIND       PRES   REMARKS
STURGEON BAY   CLOUDY    36  30  80 S13       30.06F
MANITOWOC      CLOUDY    37  32  82 S13       30.07F
SHEBOYGAN      CLOUDY    35  30  82 S8        30.07F
$$

LMZ563-521-522-541>543-212000-
LAKESHORE

STATION/POSITION TIME  TEMP    WIND        PRES    VSBY  WAVE
                       AIR SEA DIR/SP/G                  HT/PER
                 (UTC) (F)     (DEG/KT/KT) (MB)    (MI)  (FT/S)
SHEBOYGAN LKSHOR 1900   37 34  180/ 18/ 20 1019.0F
KEWAUNEE LKSHORE 1900   36     190/ 13/ 16 1017.4F
ALGOMA MARINA    1900          230/ 15/ 17   N/A
NORTHPORT PIER   1900   37     150/  9/ 16 1017.9F
SISTER BAY LKSHO 1900          180/ 16/ 20   N/A
STURGEON BAY CG  1900   36     190/  9     1019.2      6   2
CHAMBERS ISLAND  1900   36     160/  8/ 14 1017.6F
MENOMINEE LKSHOR 1900   35     170/  8/ 11 1017.8F
$$


USA.gov is the U.S. government's official web portal to all federal, state and local government web resources and services.